Location: Davidschlag
(48.4333°N, 14.2833°E)
Time: 17:57:42
(UTC+00:00)

STARLINK-1042 - Pass Details

Date: 27 February 2020
Orbit: 548 x 551 km, 53.0° (Epoch: 29 March)

Event Time Altitude Azimuth Distance (km) Brightness Sun altitude
Rises 17:19:27 0° 217° (SW) 2,704 7.8 -6.9°
Reaches altitude 10° 17:21:47 10° 209° (SSW) 1,815 6.8 -7.3°
Maximum altitude 17:25:36 37° 141° (SE) 857 4.3 -7.9°
Enters shadow 17:29:20 11° 74° (ENE) 1,790 5.6 -8.5°
